Date String (YYYY-MM-DD hh:mm:ss) UTC,Instrument flags,absolute air pressure of the measurement (hPa),sample flow rate (lpm),inlet stack bypass flow (lpm),air temperature of the measurement (°C),ambient temperature measured by the external sensor (°C),aerosol sample conditioner tube jacket temperature (°C),OPC LED temperature (°C),internal box temperature (°C),relative humidity of the measurement (%),span deviation,mass concentration of particles derived from Lorenz-Mie calculation of OPC scattering (μg/m³),mass concentration of particles derived from Lorenz-Mie calculation of OPC scattering (μg/m³),mass concentration of particles derived from Lorenz-Mie calculation of OPC scattering (μg/m³)
DateTimeUTC,F1_M11,P_M11,Q1_M11,Q2_M11,T1_M11,T2_M11,T3_M11,T4_M11,T5_M11,U1_M11,ZSPAN_M11,X0_M11,X2_M11,X1_M11
2024-02-13 15:00:00,SystemResetWarning,0827.1,5.01,000.00,018.3,017.9,000.0,026.8,020.0,15.0,0000.0,0008.15,0005.32,0005.01
2024-02-13 15:01:00,SystemResetWarning,0827.1,5.01,000.00,018.3,017.9,000.0,026.8,020.0,15.1,0000.0,0008.34,0005.33,0005.01
2024-02-13 15:02:00,SystemResetWarning,0827.1,5.00,000.00,018.3,017.9,000.0,026.8,020.0,15.2,0000.0,0008.28,0005.32,0005.02
2024-02-13 15:03:00,SystemResetWarning,0827.1,5.00,000.00,018.3,017.9,000.0,026.8,020.1,15.5,0000.0,0008.24,0005.34,0005.04
2024-02-13 15:04:00,SystemResetWarning,0827.1,5.00,000.00,018.3,017.9,000.0,026.8,020.1,15.9,0000.0,0008.20,0005.35,0005.07
2024-02-13 15:05:00,SystemResetWarning,0827.1,5.00,000.00,018.3,017.9,000.0,026.8,020.1,16.1,0000.0,0008.21,0005.37,0005.09
2024-02-13 15:06:00,SystemResetWarning,0827.1,5.00,000.00,018.3,017.9,000.0,026.8,020.0,15.8,0000.0,0008.25,0005.36,0005.10
2024-02-13 15:07:00,SystemResetWarning,0827.1,5.01,000.00,018.3,017.9,000.0,026.8,020.0,15.7,0000.0,0008.25,0005.38,0005.12
2024-02-13 15:08:00,SystemResetWarning,0827.1,5.00,000.00,018.3,017.9,000.0,026.8,020.0,16.0,0000.0,0008.36,0005.42,0005.12
2024-02-13 15:09:00,SystemResetWarning,0827.1,5.01,000.00,018.3,017.9,000.0,026.8,020.1,16.4,0000.0,0008.38,0005.40,0005.09
2024-02-13 15:10:00,SystemResetWarning,0827.1,5.00,000.00,018.3,017.9,000.0,026.8,020.1,16.7,0000.0,0008.30,0005.37,0005.06
2024-02-13 15:11:00,SystemResetWarning,0827.1,5.00,000.00,018.3,017.9,000.0,026.8,020.1,16.3,0000.0,0008.15,0005.35,0005.02
2024-02-13 15:12:00,SystemResetWarning,0827.1,4.99,000.00,018.3,017.9,000.0,026.8,020.1,15.8,0000.0,0008.23,0005.33,0005.01
2024-02-13 15:13:00,SystemResetWarning,0827.2,5.00,000.00,018.3,017.9,000.0,026.8,020.1,15.9,0000.0,0008.27,0005.34,0005.00
2024-02-13 15:14:00,SystemResetWarning,0827.2,5.00,000.00,018.3,017.9,000.0,026.8,020.1,15.8,0000.0,0008.75,0005.35,0004.98
2024-02-13 15:15:00,SystemResetWarning,0827.2,5.00,000.00,018.3,017.9,000.0,026.8,020.1,15.5,0000.0,0009.12,0005.34,0004.96
2024-02-13 15:16:00,SystemResetWarning,0827.2,5.00,000.00,018.3,017.9,000.0,026.7,020.1,15.9,0000.0,0010.13,0005.37,0004.96
2024-02-13 15:17:00,SystemResetWarning,0827.2,5.00,000.00,018.3,017.9,000.0,026.8,020.1,15.8,0000.0,0010.22,0005.36,0004.97
2024-02-13 15:18:00,SystemResetWarning,0827.1,5.00,000.00,018.4,018.0,000.0,026.8,020.1,15.6,0000.0,0010.23,0005.37,0004.96
2024-02-13 15:19:00,SystemResetWarning,0827.1,5.00,000.00,018.4,018.0,000.0,026.8,020.1,14.9,0000.0,0010.41,0005.35,0004.95
2024-02-13 15:20:00,SystemResetWarning,0827.1,5.00,000.00,018.4,018.0,000.0,026.8,020.1,13.9,0000.0,0010.61,0005.33,0004.94
2024-02-13 15:21:00,SystemResetWarning,0827.2,5.00,000.00,018.4,018.0,000.0,026.8,020.1,14.0,0000.0,0010.56,0005.31,0004.94
2024-02-13 15:22:00,SystemResetWarning,0827.2,5.01,000.00,018.4,018.0,000.0,026.8,020.1,14.0,0000.0,0010.49,0005.29,0004.94
2024-02-13 15:23:00,SystemResetWarning,0827.2,5.00,000.00,018.4,018.0,000.0,026.8,020.2,14.0,0000.0,0010.20,0005.27,0004.94
2024-02-13 15:24:00,SystemResetWarning,0827.2,5.00,000.00,018.4,018.0,000.0,026.8,020.2,14.5,0000.0,0010.17,0005.26,0004.93
2024-02-13 15:25:00,SystemResetWarning,0827.2,4.99,000.00,018.4,018.0,000.0,026.8,020.2,15.0,0000.0,0009.77,0005.24,0004.91
2024-02-13 15:26:00,SystemResetWarning,0827.2,5.00,000.00,018.4,018.0,000.0,026.8,020.2,15.5,0000.0,0009.38,0005.17,0004.85
2024-02-13 15:27:00,SystemResetWarning,0827.2,5.00,000.00,018.4,018.0,000.0,026.8,020.2,15.3,0000.0,0008.21,0005.05,0004.76
2024-02-13 15:28:00,SystemResetWarning,0827.2,5.00,000.00,018.4,018.0,000.0,026.8,020.2,15.4,0000.0,0008.03,0004.99,0004.69
2024-02-13 15:29:00,SystemResetWarning,0827.2,5.00,000.00,018.4,018.0,000.0,026.8,020.2,15.2,0000.0,0007.96,0004.92,0004.62
2024-02-13 15:30:00,SystemResetWarning,0827.2,5.00,000.00,018.4,018.1,000.0,026.8,020.2,15.2,0000.0,0007.77,0004.88,0004.57
2024-02-13 15:31:00,SystemResetWarning,0827.2,5.00,000.00,018.4,018.1,000.0,026.8,020.2,15.2,0000.0,0007.57,0004.87,0004.54
2024-02-13 15:32:00,SystemResetWarning,0827.2,5.00,000.00,018.4,018.1,000.0,026.8,020.2,15.8,0000.0,0007.99,0004.84,0004.51
2024-02-13 15:33:00,SystemResetWarning,0827.2,5.00,000.00,018.5,018.1,000.0,026.8,020.2,15.6,0000.0,0008.32,0004.81,0004.48
2024-02-13 15:34:00,SystemResetWarning,0827.2,5.01,000.00,018.5,018.1,000.0,026.8,020.2,15.6,0000.0,0008.29,0004.78,0004.45
2024-02-13 15:35:00,SystemResetWarning,0827.2,5.00,000.00,018.5,018.1,000.0,026.8,020.2,15.4,0000.0,0008.21,0004.74,0004.43
2024-02-13 15:36:00,SystemResetWarning,0827.2,5.00,000.00,018.5,018.1,000.0,026.9,020.3,15.6,0000.0,0008.17,0004.73,0004.43
2024-02-13 15:37:00,SystemResetWarning,0827.2,5.00,000.00,018.5,018.1,000.0,026.9,020.3,15.4,0000.0,0008.21,0004.75,0004.46
2024-02-13 15:38:00,SystemResetWarning,0827.2,5.00,000.00,018.5,018.1,000.0,026.9,020.3,15.6,0000.0,0008.48,0004.84,0004.53
2024-02-13 15:39:00,SystemResetWarning,0827.2,5.00,000.00,018.5,018.2,000.0,026.9,020.3,15.8,0000.0,0008.58,0004.91,0004.59
2024-02-13 15:40:00,SystemResetWarning,0827.2,5.00,000.00,018.5,018.2,000.0,026.9,020.3,16.0,0000.0,0008.62,0004.96,0004.65
2024-02-13 15:41:00,SystemResetWarning,0827.2,5.00,000.00,018.5,018.2,000.0,026.9,020.3,16.2,0000.0,0008.59,0004.99,0004.70
2024-02-13 15:42:00,SystemResetWarning,0827.2,5.00,000.00,018.5,018.2,000.0,026.9,020.3,16.2,0000.0,0008.58,0005.03,0004.75
2024-02-13 15:43:00,SystemResetWarning,0827.2,5.00,000.00,018.6,018.2,000.0,026.9,020.3,16.1,0000.0,0008.42,0005.06,0004.77
2024-02-13 15:44:00,SystemResetWarning,0827.2,5.00,000.00,018.6,018.2,000.0,026.9,020.4,15.6,0000.0,0008.01,0005.11,0004.80
2024-02-13 15:45:00,SystemResetWarning,0827.2,5.00,000.00,018.6,018.2,000.0,026.9,020.4,15.2,0000.0,0008.05,0005.14,0004.82
2024-02-13 15:46:00,SystemResetWarning,0827.1,5.00,000.00,018.6,018.3,000.0,026.9,020.4,14.2,0000.0,0008.14,0005.17,0004.86
2024-02-13 15:47:00,SystemResetWarning,0827.2,5.00,000.00,018.6,018.3,000.0,026.9,020.4,14.6,0000.0,0008.16,0005.19,0004.89
2024-02-13 15:48:00,SystemResetWarning,0827.2,5.00,000.00,018.6,018.3,000.0,026.9,020.4,15.0,0000.0,0008.15,0005.21,0004.90
2024-02-13 15:49:00,SystemResetWarning,0827.2,4.99,000.00,018.6,018.3,000.0,027.0,020.4,15.9,0000.0,0007.95,0005.19,0004.89
2024-02-13 15:50:00,SystemResetWarning,0827.3,4.99,000.00,018.6,018.3,000.0,027.0,020.4,16.6,0000.0,0007.93,0005.17,0004.87
2024-02-13 15:51:00,SystemResetWarning,0827.2,5.00,000.00,018.6,018.3,000.0,027.0,020.4,16.6,0000.0,0007.97,0005.17,0004.85
2024-02-13 15:52:00,SystemResetWarning,0827.2,5.00,000.00,018.7,018.3,000.0,027.0,020.4,15.9,0000.0,0007.91,0005.12,0004.79
2024-02-13 15:53:00,SystemResetWarning,0827.2,5.01,000.00,018.7,018.3,000.0,027.0,020.4,15.2,0000.0,0008.06,0005.03,0004.73
2024-02-13 15:54:00,SystemResetWarning,0827.2,5.01,000.00,018.7,018.3,000.0,027.0,020.4,15.1,0000.0,0008.33,0005.01,0004.68
2024-02-13 15:55:00,SystemResetWarning,0827.2,5.00,000.00,018.7,018.3,000.0,027.0,020.4,17.1,0000.0,0008.40,0004.99,0004.66
2024-02-13 15:56:00,SystemResetWarning,0827.2,5.00,000.00,018.7,018.3,000.0,027.0,020.4,16.8,0000.0,0008.85,0005.00,0004.66
2024-02-13 15:57:00,SystemResetWarning,0827.2,4.99,000.00,018.7,018.3,000.0,027.0,020.5,16.2,0000.0,0009.11,0005.05,0004.67
2024-02-13 15:58:00,SystemResetWarning,0827.2,4.99,000.00,018.7,018.4,000.0,027.0,020.5,15.4,0000.0,0009.15,0005.07,0004.66
2024-02-13 15:59:00,SystemResetWarning,0827.2,5.00,000.00,018.7,018.4,000.0,027.0,020.5,14.4,0000.0,0009.19,0005.10,0004.64
